Tracking 25995 objects as of 19-Aug-2022
HD Live streaming from Space Station
objects crossing your sky now

SPARK 2

Track SPARK 2 now!
10-day predictions


NORAD ID: 41901
Int'l Code: 2016-081D
Perigee: 696.5 km
Apogee: 733.3 km
Inclination: 98.4 °
Period: 98.9 minutes
Semi major axis: 7085 km
RCS: Unknown
Launch date: December 21, 2016
Source: People's Republic of China (PRC)
Launch site: Jiuquan Satellite Launch Center, China (JSC)

SPARK 2 is a secondary payload designed for high-resolution and hyperspectral remote sensing of Earth.
aabbcc
Your satellite tracking list
Your tracking list is empty




NASA's NSSDC Master Catalog

Two Line Element Set (TLE):
1 41901U 16081D   22230.42974105  .00000333  00000-0  87167-4 0  9994
2 41901  98.3620 176.7752 0026020 317.9014  42.0184 14.55495396300402
Source of the keplerian elements: AFSPC